User: anonymous
Location: Goheenville
(40.9070°N, 79.3720°W)
Time: 20:29:00
(UTC-04:00)
Language:

Meteor 2-10 Rocket - Orbit

View from above orbital plane
View from above orbital plane
View from above satellite
View from above satellite

Ground track
Ground track

The orbit data is extracted from the following two-line orbital elements,

1 14453U 83109B   14292.72954541  .00000201  00000-0  77110-4 0  2607
2 14453 081.1690 003.5084 0104597 354.3981 119.8688 14.24522775609211
Epoch (UTC): 19 October 2014 17:30:32
Eccentricity: 0.0104597
inclination: 81.1690°
perigee height: 735 km
apogee height: 885 km
right ascension of ascending node: 3.5084°
argument of perigee: 354.3981°
revolutions per day: 14.24522775
mean anomaly at epoch: 119.8688°
orbit number at epoch: 60921

The dashed part of the orbit path shows where the satellite is in the earth's shadow,  

DLR